Location: ??
(34.9170°N, 135.5016°E)
Time: 18:38:28
(UTC+00:00)

Cosmos 2228 - Pass Details

Date: 29 October 2020
Orbit: 590 x 617 km, 82.5° (Epoch: 01 December)

Event Time Altitude Azimuth Distance (km) Brightness Sun altitude
Exits shadow 19:25:29 - 354° (N) 2,671 6.3 -23.4°
Reaches altitude 10° 19:27:11 10° 355° (N) 1,976 5.6 -23.0°
Maximum altitude 19:31:35 82° 83° (E) 626 3.0 -22.1°
Drops below altitude 10° 19:35:57 10° 172° (S) 1,971 5.7 -21.2°
Sets 19:38:10 0° 173° (S) 2,873 6.6 -20.8°
